ATLAS 5 CENTAUR DEB, 47343

Orbit data source: Space-Track

ATLAS 5 CENTAUR DEB, 47343 is space debris in HEO originally from a launch on Wed, 17 Oct 2018 UTC launched from the Air Force Eastern Test Range (AFETR). Debris objects in space refer to the collection of defunct objects orbiting the Earth. Examples of debris include non-operational satellites, rocket bodies, and fragments generated from explosions, collisions, or faulty payload assembly.

Loading next visibility...
Identifier
47343, 2018-079EQ
Orbit
HEO
Country
Flag of USUS
Related business
Flag of USUnited Launch Alliance/Lockheed Martin (US)
Manufacturer
ULA Decatur
Mission
Spacecraft
Bus & Motor
Unknown
Mass
Unknown
Launch date (UTC)
2018-10-17 (8 years ago)
Launch vehicle
Unknown
Launch site
Air Force Eastern Test Range (AFETR)
Object type
Payload
Rocket body
Debris
Shape & HBR
Unknown shape, 1.1 m
Radar Cross Section
Medium (>0.1 m² and <1 m²)

Expand to show TLE details & history
Last TLE update: 2 months ago

TLE from 2 months ago
0 ATLAS 5 CENTAUR DEB
1 47343U 18079EQ  26172.76707827 -.00000102  00000-0  00000-0 0  9992
2 47343  12.4615  46.2942 3445142 335.9246  11.2395  1.96308629 35849
Epoch: 2026-06-21T18:24Z
TLE epoch observation values (Epoch: 2026-06-21T18:24:35.562Z)
Latitude
0.00002°
Longitude
-139.83302°
Altitude
11,695.037 km
Speed
5.414 km/s
True Right ascension
03h 05m 06s
True Declination
0° 00' 00"
Sunlit
Object was in daylight at epoch
Visualization orbit readout
Latitude
Unknown
Longitude
Unknown
Altitude
Unknown
Speed
Unknown
Apparent Right ascension
Unknown
Apparent Declination
Unknown
Sunlit
N/A
Visualization observer readout
Local Sidereal Time
23:18:42
Azimuth
Unknown
Elevation
Unknown
Doppler factor
Unknown
Orbital elements
Apogee altitude
29,849.293 km
Perigee altitude
11,283.682 km
Semi-major axis
26,944.625 km
Eccentricity
0.34451
Inclination
12.4615°
RAAN
46.2942°
Arg. of periapsis
335.9246°
True anomaly
24.18517°
Mean anomaly
11.2395°
Eccentric anomaly
17.01594°
Mean motion
0.49072 °/min
Orbital period
733.61 mins
BSTAR
0
Loading maneuver chart data...
Computing Atmospheric mass density...

Documentation

Showing up to 5 results
|